GFSGBSN_prec_cthk_057.txt.gz
RH
29 27 24 21 19 19 19 18 20 20 18 17 16 16 17 17 22 32 36 41 44 53 56 53 46 43 44 43 39 31 38 36 30 26 26 24 20 22 24 27 29 29 26 25 24 24 24
28 28 24 21 21 20 20 19 18 17 18 16 14 12 12 16 20 23 34 43 48 52 57 57 53 44 46 51 41 35 33 44 37 31 29 27 24 24 26 27 29 29 28 28 25 24 23
28 26 22 21 21 20 19 18 18 18 18 16 13 12 11 11 18 18 23 39 49 53 57 60 54 54 51 43 45 40 33 37 42 38 32 36 32 28 26 29 31 33 31 31 26 25 25
27 25 22 22 21 20 19 20 19 17 14 14 15 15 14 13 15 18 18 24 38 42 53 54 57 56 51 41 44 47 37 36 40 41 37 36 35 31 28 31 35 36 35 33 28 27 28
25 23 22 22 20 22 21 24 20 18 17 17 17 16 15 14 15 15 15 15 29 33 48 52 59 56 44 46 48 50 47 38 36 45 42 40 39 36 31 34 37 39 37 35 27 30 31
25 23 22 24 23 23 21 17 17 17 16 16 17 17 16 15 15 15 17 12 18 35 43 52 55 68 58 53 59 63 58 48 38 47 53 49 45 39 36 33 36 40 41 35 29 34 35
25 26 24 24 22 21 19 18 20 19 18 18 20 17 16 17 18 19 19 16 16 28 39 50 49 58 65 69 60 61 55 57 48 43 52 52 49 42 37 39 41 40 37 34 30 35 31
28 29 25 23 22 21 20 19 20 20 19 20 19 15 18 20 22 23 24 28 33 39 43 41 45 50 48 71 64 57 56 59 59 48 48 52 49 46 42 41 38 41 41 38 33 34 34
28 28 27 26 26 25 24 22 19 18 17 18 18 16 18 21 22 24 30 30 37 40 40 42 39 42 42 44 60 47 48 50 59 54 45 47 47 45 46 44 40 44 44 44 38 34 37
30 28 29 32 29 24 26 21 22 20 19 19 19 17 21 24 23 30 33 34 40 40 42 24 36 38 36 38 46 56 43 42 55 55 51 44 42 44 46 45 42 45 48 42 39 35 35
38 37 30 32 31 32 26 22 27 21 18 19 20 20 25 27 28 34 33 35 37 42 30 16 28 31 35 30 30 48 46 32 40 54 57 47 45 43 44 44 45 43 49 47 41 37 41
39 39 36 35 32 33 27 30 23 21 20 21 22 21 28 29 29 36 37 38 38 51 42 22 24 41 36 38 33 39 51 43 34 46 59 51 47 44 40 43 44 45 48 46 47 47 48
41 40 39 37 35 33 31 29 22 22 22 23 25 24 28 31 33 39 42 41 48 49 24 28 27 27 34 33 35 42 47 49 43 53 58 55 51 49 46 46 48 47 47 50 54 57 48
43 40 38 37 36 35 33 30 24 28 24 25 27 28 28 28 33 40 45 48 53 36 38 29 28 28 30 46 38 43 55 47 37 40 43 51 57 53 50 49 48 49 48 53 62 60 51
41 42 41 40 39 37 36 35 33 28 26 27 31 32 28 26 35 42 50 54 47 39 40 35 27 24 29 40 52 43 46 54 41 41 42 40 43 51 52 53 53 57 55 49 58 69 64
33 34 35 37 37 36 35 35 35 28 24 26 37 35 26 27 38 49 53 48 44 51 49 37 39 35 40 40 45 54 52 61 47 29 37 42 42 46 49 52 55 53 53 58 60 60 62
35 33 32 32 30 35 38 32 32 23 26 31 39 40 30 32 41 53 54 58 47 43 54 50 43 42 42 45 44 50 66 60 63 51 23 35 38 46 54 54 54 57 55 55 54 58 58
36 36 34 33 32 32 33 32 31 24 30 41 49 48 41 44 55 56 59 67 49 42 50 54 49 49 48 48 49 47 59 66 65 72 58 34 32 39 46 53 52 56 56 54 61 63 67
49 48 39 36 34 34 42 39 34 28 36 49 51 49 48 55 60 62 61 60 67 46 53 61 64 55 54 51 51 48 55 59 61 66 79 67 59 55 50 47 53 54 55 54 58 59 60
46 48 48 42 38 36 42 42 35 33 39 56 58 56 54 59 59 66 68 71 65 52 55 66 70 66 60 55 55 55 49 50 59 56 71 67 74 70 64 62 62 63 59 60 56 59 55
71 66 52 48 46 45 45 45 37 40 42 59 61 60 55 66 58 61 77 77 72 64 66 72 74 75 70 67 60 57 53 47 49 59 64 71 70 67 68 68 70 64 62 62 62 58 60
71 70 59 51 47 43 39 40 43 36 43 57 62 62 61 60 77 73 84 84 64 70 77 79 80 86 83 72 63 57 59 54 48 52 58 61 75 70 66 61 62 60 57 57 61 58 58
59 60 58 55 53 53 54 56 54 48 42 55 56 62 70 63 65 87 76 67 68 87 87 85 88 91 89 83 75 65 59 58 54 54 61 62 72 69 61 62 58 52 52 56 59 61 62
60 64 64 64 65 65 65 67 69 63 46 46 54 64 73 70 85 75 75 76 78 86 86 91 91 93 89 86 80 71 62 55 51 48 47 54 66 67 70 74 62 49 56 56 57 56 61
64 69 73 74 74 76 76 76 77 77 67 49 48 69 75 79 76 87 83 79 87 90 93 93 93 93 94 92 90 78 66 58 46 40 42 44 60 82 77 70 52 45 53 61 58 49 52
98 96 91 87 86 83 83 84 87 87 77 62 49 64 83 86 76 84 96 95 95 98 98 95 96 98 94 92 92 83 72 65 64 59 52 49 52 75 81 76 65 44 44 47 43 42 43
98 98 98 98 97 94 95 98 95 88 79 73 66 72 90 91 89 90 88 91 95 94 96 94 96 98 97 97 95 83 78 68 68 67 66 66 61 63 69 66 55 43 42 44 41 37 38
98 98 98 98 98 98 98 98 89 85 84 82 80 88 96 96 96 89 88 92 96 95 96 93 97 95 97 96 89 85 81 69 63 67 70 65 65 67 65 71 61 44 54 49 50 42 43
87 86 89 96 98 98 99 98 90 92 95 97 96 96 99 99 96 91 90 92 86 90 94 94 88 87 87 88 84 79 77 77 68 67 63 68 58 59 56 52 47 56 55 53 54 51 50

GFSGBSN_prec_cthk_060.txt.gz
RH
34 32 31 29 28 27 26 24 22 18 16 16 13 11 10 10 10 10 12 13 15 22 26 33 37 45 51 46 44 41 43 39 38 30 24 23 23 22 22 22 24 27 30 29 26 25 24
36 34 31 30 28 26 24 22 20 16 15 16 13 12 13 12 11 10 9 10 12 15 21 29 41 47 58 56 50 56 42 43 45 37 33 27 25 25 24 24 23 27 30 29 28 26 25
32 32 31 31 29 27 25 23 18 18 16 14 15 16 16 15 14 12 8 6 8 11 12 21 28 41 56 59 50 56 60 34 41 44 41 35 29 25 23 25 26 28 32 32 30 27 27
33 32 31 30 29 28 25 20 20 19 18 18 17 16 16 16 14 11 10 8 8 7 8 11 24 41 51 53 52 63 58 47 33 45 47 39 36 33 31 30 30 30 32 34 33 30 28
34 34 32 31 29 27 22 20 19 18 19 17 16 16 16 15 13 12 10 8 9 8 11 10 27 43 53 51 56 59 67 63 40 36 50 51 40 38 35 33 32 33 31 34 35 33 32
37 33 32 30 28 24 22 22 20 20 18 18 17 15 17 16 16 16 12 9 9 12 15 15 33 42 45 48 49 57 66 71 59 41 48 50 48 43 37 34 32 34 36 35 35 33 33
35 34 33 29 28 25 22 22 22 22 22 20 17 16 16 16 16 19 14 15 17 20 17 16 23 37 45 55 56 58 76 66 74 55 48 51 51 43 39 39 37 36 36 36 33 34 32
32 29 30 34 28 28 26 28 28 25 21 18 15 15 15 15 19 21 24 27 27 29 26 15 23 32 38 51 59 67 71 76 75 58 54 57 54 49 48 46 43 39 38 37 37 39 32
33 39 38 31 29 32 29 29 27 23 23 17 14 14 16 17 23 27 29 30 29 29 30 18 19 23 30 35 51 71 72 77 76 71 48 53 52 52 55 48 47 42 40 41 42 40 34
33 35 39 38 36 37 31 30 29 26 26 23 17 16 18 20 30 32 34 34 32 31 37 21 21 26 36 37 39 46 72 75 70 63 61 52 49 53 54 50 48 44 43 44 47 44 35
42 41 40 39 38 39 38 37 29 27 25 21 17 18 22 27 32 34 34 34 32 35 25 19 24 30 38 37 38 38 51 63 64 51 64 61 56 48 49 47 48 46 45 46 51 44 39
43 43 40 41 41 40 39 39 34 31 22 19 19 22 25 31 37 33 37 34 37 41 26 22 23 25 30 40 37 42 44 61 59 57 67 61 59 53 47 44 47 48 49 49 49 49 46
38 39 42 42 42 42 41 40 38 33 24 26 22 27 27 30 39 32 37 41 42 27 19 27 26 25 24 34 44 42 47 47 61 50 53 50 57 62 49 45 49 49 47 52 51 54 46
29 31 36 40 42 46 45 41 38 36 29 30 28 28 30 30 35 35 38 46 44 27 24 25 23 23 25 33 44 50 48 48 52 52 44 47 53 61 58 49 49 48 47 46 55 53 45
31 31 33 32 34 39 52 47 40 39 36 33 31 34 31 32 32 38 47 46 32 35 34 28 21 21 23 29 42 51 52 51 50 52 51 50 54 57 62 56 49 51 52 49 51 58 55
30 32 38 39 38 38 34 41 44 41 38 36 40 45 33 35 33 50 52 42 35 35 38 34 31 30 30 33 37 48 54 61 59 54 47 48 49 45 48 61 61 56 56 58 57 60 62
43 42 43 41 41 40 44 43 46 40 34 34 42 50 36 32 39 55 55 42 36 33 42 40 39 35 36 41 41 44 59 64 66 57 49 52 58 62 48 54 59 64 60 57 57 56 56
44 44 37 38 42 46 43 42 49 42 34 36 49 47 39 41 50 52 53 42 40 37 33 43 41 42 40 44 48 50 59 58 67 72 56 40 54 61 58 51 52 56 58 58 61 62 59
53 53 53 56 59 54 48 48 46 49 35 48 52 47 44 55 57 53 48 45 52 48 46 44 41 42 41 43 48 45 53 60 67 72 78 66 43 47 44 45 50 58 58 57 60 60 64
65 68 67 65 60 54 54 56 58 61 46 47 55 53 51 56 57 56 53 54 54 52 52 53 53 49 49 50 53 53 53 54 65 62 80 77 72 44 45 41 52 59 64 64 59 62 60
64 74 81 87 78 69 66 60 53 66 57 51 57 55 51 62 52 53 61 67 56 57 55 56 51 49 53 57 54 55 54 51 61 61 64 78 79 74 68 60 58 58 61 59 61 62 63
63 70 75 80 85 88 77 69 71 73 64 58 58 56 63 57 59 57 57 50 64 60 64 58 55 60 61 61 62 60 57 58 54 62 65 63 75 75 66 68 71 68 62 59 56 58 58
47 57 63 66 72 73 74 70 62 58 61 55 59 61 65 59 56 60 57 56 53 63 71 63 70 75 75 73 73 66 62 61 61 58 64 68 72 69 67 65 60 53 50 56 63 60 60
44 45 50 57 62 65 68 74 73 67 59 60 57 59 66 64 67 58 58 74 77 75 81 72 83 92 88 85 83 77 70 62 57 57 57 62 75 77 67 71 65 51 47 51 55 54 54
85 72 60 60 68 72 74 74 74 75 72 72 63 58 60 60 49 53 61 66 76 78 79 87 90 92 97 98 94 86 79 74 62 54 54 53 68 73 75 65 47 40 47 55 57 57 55
98 98 98 97 82 77 79 79 82 83 82 82 83 60 56 67 51 52 71 73 88 85 83 89 96 98 98 97 93 88 87 72 72 62 53 52 55 65 73 67 55 42 47 49 45 47 48
99 98 96 96 96 96 88 86 83 86 88 88 86 82 67 48 71 74 69 76 87 95 96 96 97 98 98 96 92 86 83 77 78 70 67 57 57 53 60 61 46 43 51 49 47 54 48
95 97 98 98 97 98 97 95 90 91 94 95 91 86 78 63 55 67 84 84 87 96 96 93 97 97 98 98 92 84 84 76 70 72 69 65 58 61 61 67 63 42 41 43 56 49 48
93 94 93 91 98 98 98 98 98 97 98 99 89 81 84 82 71 77 80 94 92 86 92 97 89 93 92 90 89 85 83 82 69 71 70 72 60 61 56 58 55 59 60 58 55 54 55

GFSGBSN_prec_cthk_063.txt.gz
RH
45 38 34 36 33 33 30 28 26 26 23 20 18 15 13 9 7 6 5 5 5 6 7 8 11 15 17 29 35 44 32 33 48 51 44 30 24 26 25 20 20 20 22 27 29 28 26
40 39 38 36 34 32 28 27 27 26 25 20 19 17 15 11 8 7 7 7 7 6 6 6 8 9 17 21 30 45 49 36 42 59 50 38 29 27 26 24 23 23 24 28 30 29 27
38 38 38 36 34 31 32 31 29 29 26 24 21 17 13 11 12 10 8 8 7 6 6 6 7 7 12 10 30 43 46 45 42 58 50 47 38 34 31 30 27 25 25 28 30 30 28
40 39 37 36 34 36 36 34 31 27 26 23 19 15 12 12 13 10 9 8 7 7 6 6 6 13 15 12 31 46 54 53 57 60 48 46 45 41 34 30 28 26 25 29 31 33 32
45 44 39 38 37 37 35 32 29 29 26 20 17 16 13 12 12 10 9 8 9 9 9 8 14 17 15 19 35 47 55 56 61 68 53 44 44 38 36 33 33 32 28 30 33 34 35
42 42 41 39 37 34 31 30 27 27 24 22 22 18 15 13 11 11 10 10 15 15 18 20 23 24 22 20 37 54 57 60 65 78 52 47 49 42 36 36 34 34 34 32 33 37 35
48 42 38 39 40 35 32 30 30 28 25 21 20 19 16 14 12 14 14 22 24 31 24 18 18 21 17 25 32 53 64 64 66 76 68 40 51 48 41 40 39 39 40 38 37 36 35
46 46 46 42 36 35 30 36 33 28 24 25 24 20 17 14 14 16 28 31 28 29 26 18 18 17 16 16 23 43 66 67 71 79 79 56 46 48 52 50 46 43 39 38 38 36 35
45 44 44 44 44 35 38 39 33 30 26 23 23 20 18 16 17 25 31 34 32 37 34 19 18 19 21 21 26 38 58 73 78 87 83 69 58 60 54 55 52 49 45 42 41 40 38
47 48 44 44 44 42 40 40 39 38 31 30 28 23 22 18 28 32 37 31 36 39 41 29 23 26 27 25 28 28 54 78 83 87 88 74 67 66 63 57 59 52 47 43 44 42 41
39 40 43 42 42 44 42 40 40 39 35 38 29 26 24 21 29 34 35 33 37 44 37 24 27 22 26 27 26 34 42 62 75 78 76 75 61 56 63 62 62 55 52 48 47 43 45
31 33 31 35 36 39 43 42 42 41 38 39 30 28 24 30 32 38 32 35 42 59 39 25 23 24 23 25 31 26 36 53 62 83 78 69 67 65 59 54 59 55 54 53 52 46 50
30 30 27 26 27 28 32 37 41 45 43 39 34 37 28 33 37 40 32 39 51 38 24 29 26 22 22 25 32 34 34 39 53 66 78 74 68 66 65 58 59 51 54 57 57 53 46
25 28 27 27 31 30 29 33 38 43 44 42 38 37 32 35 35 38 39 45 47 27 26 26 22 16 18 24 38 41 43 43 44 61 70 68 70 69 65 63 56 54 54 54 58 55 45
27 28 34 35 34 30 31 32 41 42 37 40 43 40 40 41 36 38 53 52 35 32 31 30 18 15 21 29 29 40 45 51 48 50 61 58 50 55 58 66 60 54 53 53 53 64 57
31 39 40 39 38 39 39 38 39 42 40 40 42 52 49 47 41 48 62 46 36 36 34 27 24 24 30 35 30 36 54 53 53 51 56 58 57 53 60 64 66 61 57 55 56 62 64
36 41 47 46 48 46 42 40 45 45 49 44 40 46 51 48 50 61 65 47 37 39 37 35 30 33 28 35 35 37 65 67 56 53 57 60 63 59 57 60 63 65 61 62 55 55 59
42 46 49 51 52 50 44 46 45 54 58 55 46 55 52 45 59 60 59 47 43 41 40 32 32 36 36 37 42 40 43 52 53 60 68 54 61 60 71 58 57 62 63 62 65 74 58
50 55 55 51 50 55 63 63 54 54 69 67 54 54 56 69 65 58 53 48 40 42 37 36 34 34 36 38 41 40 43 48 55 65 71 67 53 62 66 74 58 58 64 67 65 65 77
59 58 61 61 66 71 74 71 64 68 73 73 71 71 54 65 60 59 53 52 45 42 41 37 41 40 42 40 44 47 49 48 57 73 72 67 68 57 53 57 54 55 60 63 60 69 66
48 46 48 51 62 66 72 75 69 74 75 86 76 65 70 68 56 58 54 60 48 46 46 42 50 46 47 48 45 48 47 50 50 69 73 79 82 82 65 66 57 53 59 57 63 63 69
42 45 41 50 59 66 82 93 86 81 91 97 77 65 61 66 71 61 52 60 56 59 52 55 56 53 48 48 52 53 53 49 53 64 77 77 85 97 78 70 70 64 58 58 59 61 63
42 33 33 44 49 58 70 87 90 87 89 97 82 72 75 73 65 72 71 55 48 55 63 68 70 63 60 66 64 63 56 59 64 66 79 76 75 90 93 74 67 71 62 62 63 60 60
74 80 77 59 44 46 57 71 87 89 89 90 87 80 81 66 59 65 60 64 59 60 55 58 66 63 79 80 71 66 59 56 58 58 67 74 75 71 79 79 89 60 53 56 60 63 62
97 98 98 96 87 52 50 66 76 79 81 85 91 84 72 70 59 64 72 69 63 70 68 80 82 72 79 80 77 74 71 68 60 55 65 67 71 80 81 68 56 53 51 57 62 65 63
98 99 99 99 98 95 63 65 69 75 78 78 84 88 85 79 65 57 52 54 69 84 78 73 87 88 84 94 97 81 77 65 65 53 54 64 65 75 73 71 71 59 58 51 53 65 69
97 98 98 99 98 98 96 72 72 75 77 81 80 85 91 82 60 74 67 55 62 80 88 86 88 94 94 98 92 83 76 81 81 72 60 60 60 62 69 67 59 60 64 53 46 61 70
93 93 95 98 99 98 96 95 82 79 81 87 78 82 86 82 68 56 76 75 80 86 91 97 96 96 97 94 85 81 83 82 77 81 69 60 63 58 56 57 59 57 50 48 60 59 60
94 93 94 95 96 99 96 95 93 85 81 89 88 85 93 91 81 77 69 71 90 96 98 94 95 95 87 82 79 87 85 86 78 90 76 65 51 55 47 50 62 66 69 72 70 63 55

GFSGBSN_prec_cthk_066.txt.gz
RH
53 51 50 43 39 39 37 33 31 31 29 27 25 25 23 21 20 16 12 9 6 5 5 5 5 5 5 9 10 8 16 21 22 34 40 38 38 41 34 26 27 26 24 25 23 26 26
53 52 48 45 43 39 35 35 34 30 30 28 28 27 26 22 18 15 12 8 6 5 5 5 6 6 12 14 6 15 18 22 28 34 48 48 45 47 36 30 29 28 27 25 25 26 28
50 48 45 44 40 37 36 35 33 31 29 28 28 28 24 21 18 12 9 7 5 4 5 6 7 9 16 7 6 7 16 22 29 36 35 51 53 55 46 34 30 27 31 30 26 26 28
50 47 44 42 40 39 37 36 35 34 32 31 29 25 22 19 15 11 7 6 5 5 6 7 9 16 22 9 12 12 17 24 36 44 42 49 56 60 53 43 36 34 33 31 25 28 29
51 50 49 47 44 42 39 38 36 33 32 30 31 29 26 20 14 9 7 6 7 11 13 15 14 26 22 17 15 14 16 26 39 50 50 52 63 60 57 47 40 33 34 29 25 29 32
54 52 47 44 44 42 41 38 35 32 32 31 28 25 22 18 12 9 9 11 14 17 23 27 33 32 27 22 20 18 25 28 43 58 61 61 64 58 57 49 44 35 31 29 31 31 33
51 48 53 53 48 41 42 37 37 40 35 31 27 26 22 16 12 11 17 17 22 29 32 25 24 23 20 22 17 17 27 35 52 64 68 67 69 57 57 47 43 36 34 43 40 34 37
54 50 49 53 51 50 46 38 37 38 36 29 29 25 23 17 15 15 27 37 34 35 26 19 19 19 19 21 17 13 27 40 57 67 72 75 79 67 58 50 43 37 42 45 45 43 40
54 50 46 47 45 44 49 46 47 44 40 32 32 29 25 17 16 30 36 35 38 37 32 21 21 22 23 21 21 20 27 42 60 76 75 82 73 62 62 57 55 46 45 47 44 41 40
38 39 37 39 39 38 42 44 42 41 41 36 33 31 26 20 28 36 41 40 40 40 42 35 29 31 27 22 24 19 22 34 57 79 86 88 85 75 74 65 55 51 47 46 47 48 45
27 27 29 27 28 28 27 32 36 37 40 38 35 32 25 24 22 33 40 42 43 46 44 30 30 27 24 24 25 26 20 29 48 71 89 94 85 84 86 77 64 61 62 62 56 50 46
25 26 27 31 27 26 26 26 27 26 28 36 39 35 28 32 42 42 45 39 46 58 49 26 28 30 30 29 32 26 22 24 40 61 77 76 80 89 84 77 76 71 72 69 61 55 52
24 23 25 27 28 26 26 27 26 26 26 28 30 34 35 34 38 52 42 47 53 44 26 29 30 26 25 25 31 37 34 27 31 48 62 71 74 77 69 73 67 68 79 73 69 62 54
27 25 21 24 26 28 33 33 33 30 35 35 29 27 26 38 38 40 45 52 57 30 39 33 29 25 18 19 35 41 39 45 35 35 43 80 81 78 69 71 76 65 73 72 82 70 53
23 24 27 28 28 31 32 33 34 35 39 41 37 31 29 27 40 48 59 58 37 29 30 34 30 20 19 26 29 43 49 49 48 45 42 65 76 66 68 72 76 72 78 59 62 69 71
32 29 29 31 34 37 37 42 42 39 41 42 42 40 33 36 43 50 65 54 42 39 41 39 31 21 29 37 38 43 55 66 59 46 45 50 65 64 59 65 72 70 65 71 64 79 78
30 29 31 35 38 44 46 48 46 45 47 47 47 45 28 46 50 56 64 55 40 43 41 41 32 27 35 35 37 38 54 69 70 59 50 53 56 62 65 60 67 71 69 74 71 64 72
28 32 34 37 40 42 48 49 48 46 56 56 60 54 42 57 67 60 56 54 51 44 45 38 38 35 38 42 43 41 42 59 55 61 62 67 54 56 64 65 71 67 72 69 80 72 62
40 40 40 42 47 49 52 49 53 62 67 66 72 55 50 87 83 63 55 53 52 49 46 47 41 35 36 40 42 40 41 55 44 46 60 60 54 54 55 66 66 73 68 74 77 88 90
41 41 42 47 51 58 58 63 66 70 74 77 87 72 57 74 82 82 70 61 52 49 42 48 42 40 38 38 38 41 46 59 45 44 51 70 60 57 53 67 82 71 68 72 74 88 85
41 42 45 46 44 45 46 50 58 69 75 90 89 66 87 80 66 71 78 81 72 50 53 42 39 41 42 43 41 45 44 42 44 49 51 85 91 72 63 65 66 60 65 68 91 87 85
35 39 42 40 42 38 42 58 65 67 78 96 83 79 72 89 94 81 58 60 62 76 55 55 47 44 44 42 47 52 50 50 50 59 60 81 94 81 69 62 76 64 71 64 68 63 60
38 37 44 43 34 35 41 48 58 72 90 96 83 77 98 77 75 84 93 74 55 56 60 62 72 55 51 58 55 53 53 54 62 64 66 79 80 84 82 85 78 70 64 71 72 74 68
44 51 60 76 89 84 76 49 49 64 88 94 83 95 98 79 83 81 76 87 86 58 52 64 67 92 73 65 67 62 51 49 44 52 56 63 79 92 90 96 91 62 59 58 55 53 59
55 69 89 93 98 97 93 88 52 55 85 91 90 96 96 85 76 74 71 73 82 74 66 55 69 77 75 71 76 61 55 53 43 37 40 49 62 89 97 89 84 69 59 64 64 71 72
77 91 92 93 98 98 99 92 79 53 73 88 88 90 97 95 73 66 65 73 90 80 74 71 81 83 75 92 80 69 65 68 60 48 34 40 49 74 81 94 83 62 61 58 63 77 71
91 89 88 92 96 98 99 97 89 58 67 80 86 91 99 95 78 77 67 71 75 79 86 89 87 85 88 79 74 78 70 66 92 72 70 55 55 67 78 89 73 63 67 61 66 76 67
86 84 84 88 94 97 98 98 95 85 63 69 77 88 93 82 79 76 79 81 65 81 87 97 93 87 83 76 84 81 78 72 82 89 77 69 71 65 65 74 76 73 71 70 74 70 70
83 85 87 89 92 96 98 99 97 95 71 74 79 82 88 91 79 73 75 77 88 94 98 96 95 97 77 79 73 74 82 83 78 84 89 85 63 64 49 50 69 67 71 73 72 67 68